Port Isabel, TX

9:13 PM CST on December 16, 2017 (GMT -0600)
Port Isabel-Cameron County

Weather History for KPIL - March, 2012

Change the Weather History Date:

Friday, March 16, 2012

  Actual Average (KBRO) Record (KBRO)
Temperature  
Mean Temperature 77 °F -  
Max Temperature 84 °F 76 °F 91 °F (1982)
Min Temperature 72 °F 58 °F 36 °F (1880)
Cooling Degree Days 12    
Growing Degree Days 27 (Base 50)    
Moisture  
Dew Point 70 °F    
Average Humidity 82    
Maximum Humidity 94    
Minimum Humidity 62    
Precipitation  
Precipitation 0.00 in - - ()
Sea Level Pressure  
Sea Level Pressure 30.05 in    
Wind  
Wind Speed 14 mph (SE)    
Max Wind Speed 25 mph    
Max Gust Speed 33 mph    
Visibility 7 miles    
Events      
Averages and records for this station are not official NWS values.
T = Trace of Precipitation, MM = Missing Value Source: NWS Daily Summary

Daily Weather History Graph

Daily Weather History Graph

Search for Another Location

Airport or City:

Trip Planner

Search our weather history database for the weather conditions in past years. The results will help you decide how hot, cold, wet, or windy it might be!

Date:

Astronomy

Mar. 16, 2012 Rise Set
Actual Time 7:37 AM CDT 7:38 PM CDT
Civil Twilight 7:14 AM CDT 8:02 PM CDT
Nautical Twilight 6:47 AM CDT 8:28 PM CDT
Astronomical Twilight 6:20 AM CDT 8:55 PM CDT
Moon 3:26 AM CDT (3/16) 2:29 PM CDT (3/16)
Length of Visible Light 12h 48m
Length of Day
12h 01m
Waning Crescent, 32% of the Moon is Illuminated
Mar 16
Waning Crescent
Mar 22
New
Mar 30
First Quarter
Apr 6
Full
Apr 13
Last Quarter

Hourly Weather History & Observations

Time (CDT) Temp. Heat Index Dew Point Humidity Pressure Visibility Wind Dir Wind Speed Gust Speed Precip Events Conditions
12:31 AM 73.4 °F - 69.8 °F 88% 30.09 in 7.0 mi SE 11.5 mph - N/A   Overcast
12:53 AM 73.9 °F - 71.1 °F 91% 30.09 in 7.0 mi SE 13.8 mph - N/A   Overcast
1:38 AM 73.4 °F - 69.8 °F 88% 30.07 in 7.0 mi SE 12.7 mph - N/A   Overcast
1:53 AM 73.9 °F - 70.0 °F 87% 30.06 in 7.0 mi SSE 12.7 mph - N/A   Overcast
2:40 AM 73.4 °F - 71.6 °F 94% 30.06 in 7.0 mi SE 12.7 mph - N/A   Overcast
2:50 AM 73.4 °F - 71.6 °F 94% 30.05 in 7.0 mi SE 11.5 mph - N/A   Overcast
2:53 AM 73.9 °F - 71.1 °F 91% 30.05 in 7.0 mi SE 11.5 mph - N/A   Overcast
3:53 AM 73.9 °F - 70.0 °F 87% 30.04 in 7.0 mi SE 11.5 mph - N/A   Overcast
4:01 AM 73.4 °F - 69.8 °F 88% 30.04 in 7.0 mi SSE 12.7 mph - N/A   Overcast
4:08 AM 73.4 °F - 69.8 °F 88% 30.03 in 7.0 mi SE 11.5 mph - N/A   Overcast
4:45 AM 73.4 °F - 69.8 °F 88% 30.03 in 7.0 mi SE 12.7 mph - N/A   Overcast
4:53 AM 73.0 °F - 70.0 °F 90% 30.03 in 7.0 mi SSE 15.0 mph - N/A   Overcast
5:03 AM 73.4 °F - 69.8 °F 88% 30.02 in 7.0 mi SE 15.0 mph - N/A   Overcast
5:38 AM 73.4 °F - 69.8 °F 88% 30.02 in 6.0 mi SE 12.7 mph - N/A   Overcast
5:50 AM 73.4 °F - 69.8 °F 88% 30.03 in 6.0 mi SSE 13.8 mph - N/A   Overcast
5:53 AM 73.0 °F - 70.0 °F 90% 30.03 in 6.0 mi SE 12.7 mph - N/A   Overcast
6:01 AM 73.4 °F - 69.8 °F 88% 30.03 in 6.0 mi SSE 13.8 mph - N/A   Overcast
6:14 AM 73.4 °F - 69.8 °F 88% 30.02 in 6.0 mi SE 12.7 mph - N/A   Overcast
6:21 AM 73.4 °F - 69.8 °F 88% 30.02 in 6.0 mi SSE 15.0 mph - N/A   Overcast
6:53 AM 73.0 °F - 70.0 °F 90% 30.04 in 7.0 mi SSE 12.7 mph - N/A   Overcast
7:53 AM 72.0 °F - 70.0 °F 93% 30.06 in 5.0 mi SE 9.2 mph - N/A   Mostly Cloudy
8:53 AM 73.0 °F - 70.0 °F 90% 30.08 in 6.0 mi SE 12.7 mph - N/A   Scattered Clouds
9:06 AM 73.4 °F - 69.8 °F 88% 30.09 in 6.0 mi SE 10.4 mph - N/A   Mostly Cloudy
9:25 AM 75.2 °F - 71.6 °F 89% 30.10 in 6.0 mi SE 11.5 mph - N/A   Overcast
9:42 AM 75.2 °F - 69.8 °F 83% 30.10 in 7.0 mi SE 16.1 mph - N/A   Overcast
9:53 AM 75.9 °F - 71.1 °F 85% 30.10 in 7.0 mi ESE 13.8 mph - N/A   Mostly Cloudy
10:05 AM 77.0 °F - 71.6 °F 83% 30.10 in 7.0 mi SE 15.0 mph 21.9 mph N/A   Mostly Cloudy
10:29 AM 78.8 °F - 69.8 °F 74% 30.11 in 7.0 mi ESE 15.0 mph 24.2 mph N/A   Scattered Clouds
10:51 AM 80.6 °F 84.6 °F 71.6 °F 74% 30.12 in 7.0 mi SE 18.4 mph 25.3 mph N/A   Mostly Cloudy
11:50 AM 80.6 °F 83.9 °F 69.8 °F 70% 30.11 in 7.0 mi SE 21.9 mph 29.9 mph N/A   Mostly Cloudy
11:53 AM 81.0 °F 84.4 °F 70.0 °F 69% 30.11 in 7.0 mi SE 20.7 mph 29.9 mph N/A   Mostly Cloudy
12:53 PM 81.0 °F 84.1 °F 69.1 °F 67% 30.10 in 8.0 mi SSE 21.9 mph 29.9 mph N/A   Mostly Cloudy
1:25 PM 80.6 °F 83.9 °F 69.8 °F 70% 30.08 in 8.0 mi SSE 24.2 mph 29.9 mph N/A   Mostly Cloudy
1:39 PM 82.4 °F 86.3 °F 69.8 °F 66% 30.07 in 8.0 mi SSE 19.6 mph 29.9 mph N/A   Mostly Cloudy
1:53 PM 82.0 °F 85.5 °F 69.1 °F 65% 30.06 in 8.0 mi SE 25.3 mph 33.4 mph N/A   Mostly Cloudy
3:07 PM 82.4 °F 86.3 °F 69.8 °F 66% 30.02 in 8.0 mi SSE 23.0 mph 33.4 mph N/A   Mostly Cloudy
3:17 PM 82.4 °F 85.4 °F 68.0 °F 62% 30.01 in 8.0 mi SSE 24.2 mph 32.2 mph N/A   Mostly Cloudy
4:53 PM 80.1 °F 82.7 °F 68.0 °F 67% 29.99 in 8.0 mi SSE 19.6 mph 29.9 mph N/A   Mostly Cloudy
5:16 PM 78.8 °F - 68.0 °F 69% 29.99 in 8.0 mi SSE 24.2 mph 29.9 mph N/A   Mostly Cloudy
5:53 PM 79.0 °F - 68.0 °F 69% 29.99 in 8.0 mi SE 19.6 mph 26.5 mph N/A   Mostly Cloudy
6:53 PM 75.9 °F - 68.0 °F 76% 30.00 in 8.0 mi SE 19.6 mph 23.0 mph N/A   Partly Cloudy
7:53 PM 73.9 °F - 68.0 °F 82% 30.01 in 9.0 mi SE 13.8 mph - N/A   Clear
8:53 PM 73.0 °F - 68.0 °F 84% 30.03 in 9.0 mi SE 10.4 mph - N/A   Clear
9:53 PM 72.0 °F - 68.0 °F 87% 30.04 in 8.0 mi SE 10.4 mph - N/A   Clear
10:53 PM 72.0 °F - 68.0 °F 87% 30.06 in 8.0 mi SE 13.8 mph - N/A   Clear
11:53 PM 72.0 °F - 69.1 °F 91% 30.05 in 8.0 mi SE 13.8 mph - N/A   Clear